FENGYUN 1C DEB, 29958

Orbit data source: Space-Track

FENGYUN 1C DEB, 29958 is space debris in SSO originally from a launch on Mon, 10 May 1999 UTC launched from the Taiyaun Space Center, China (TSC). Fengyun 1C debris stems from the Chinese weather satellite Fengyun-1C, which was intentionally destroyed by a Chinese anti-satellite missile in 2007. This event dramatically increased the amount of space debris, with thousands of trackable fragments posing hazards to satellites and human spaceflight. The Fengyun 1C debris cloud has become a focal point in discussions about space sustainability and the need for international regulations to prevent the creation of new debris.

Loading next visibility...
Identifier
29958, 1999-025KG
Orbit
SSO
Country
Flag of CNCN / PRC
Related business
Manufacturer
Unknown
Mission
Spacecraft
Bus & Motor
Unknown
Mass
Unknown
Launch date (UTC)
1999-05-10 (27 years ago)
Launch vehicle
Unknown
Launch site
Taiyaun Space Center, China (TSC)
Object type
Payload
Rocket body
Debris
Shape & HBR
Unknown shape, 0.1 m
Radar Cross Section
Medium (>0.1 m² and <1 m²)

Expand to show TLE details & history
Last TLE update: 6 hours ago

TLE from 6 hours ago
0 FENGYUN 1C DEB
1 29958U 99025KG  26138.79724819  .00000218  00000-0  13394-3 0  9999
2 29958  98.6600 153.5499 0053421 242.5220 117.0517 14.14623212996712
Epoch: 2026-05-18T19:08Z
TLE epoch observation values (Epoch: 2026-05-18T19:08:02.243Z)
Latitude
-0°
Longitude
-9.9398°
Altitude
864.215 km
Speed
7.411 km/s
True Right ascension
10h 14m 11s
True Declination
0° 00' 00"
Sunlit
Object was in daylight at epoch
Visualization orbit readout
Latitude
Unknown
Longitude
Unknown
Altitude
Unknown
Speed
Unknown
Apparent Right ascension
Unknown
Apparent Declination
Unknown
Sunlit
N/A
Visualization observer readout
Local Sidereal Time
10:07:12
Azimuth
Unknown
Elevation
Unknown
Doppler factor
Unknown
Orbital elements
Apogee altitude
879.322 km
Perigee altitude
802.193 km
Semi-major axis
7,218.895 km
Eccentricity
0.00534
Inclination
98.66°
RAAN
153.5499°
Arg. of periapsis
242.522°
True anomaly
117.59523°
Mean anomaly
117.0517°
Eccentric anomaly
117.32363°
Mean motion
3.53865 °/min
Orbital period
101.73 mins
BSTAR
0.00013394
Loading maneuver chart data...
Computing Atmospheric mass density...

Documentation

Showing up to 5 results
|